Regional Weather Roundup
Issued by NWS Kansas City/Pleasant Hill, MO

Home | Current Version | Previous Version | Graphics & Text | Print | Product List | Glossary Off
Versions: 1 2 3 4 5 6 7 8 9 10 11 12 13 14 15 16 17 18 19 20 21 22 23 24 25 26 27 28 29 30 31 32 33 34 35 36 37 38 39 40 41 42 43 44 45 46 47 48 49 50

121
ASUS43 KEAX 191810
RWREAX

WEATHER ROUNDUP FOR EASTERN KANSAS AND NORTHWEST MISSOURI
NATIONAL WEATHER SERVICE KANSAS CITY/PLEASANT HILL MO
1200 PM CST THU JAN 19 2017

KSZ040-057-103>105-MOZ028-029-037-043-191900-
...KANSAS CITY METROPOLITAN AREA...

CITY           SKY/WX    TMP DP  RH WIND       PRES   REMARKS
K.C. INTL      CLOUDY    47  43  86 S8        29.76F
6HR MIN TEMP:  42; 6HR MAX TEMP:  47; 6HR PCP: TRACE;

K.C. DOWNTOWN  CLOUDY    48  46  93 SE3       29.76F
6HR MIN TEMP:  44; 6HR MAX TEMP:  48;

LEES SUMMIT    CLOUDY    46  46 100 SE6       29.76F FOG
6HR MIN TEMP:  43; 6HR MAX TEMP:  46;

OLATHE - IXD   CLOUDY    45  45 100 SE9       29.75F FOG
6HR MIN TEMP:  43; 6HR MAX TEMP:  45;

OLATHE - OJC   CLOUDY    44  44 100 SE5       29.75F FOG
6HR MIN TEMP:  42; 6HR MAX TEMP:  44;

LAWRENCE       CLOUDY    47  46  97 E7        29.76F

$$

MOZ001>008-011>017-020>025-030>033-038>040-044>046-053-054-191900-
...NORTHERN AND CENTRAL MISSOURI...

CITY           SKY/WX    TMP DP  RH WIND       PRES   REMARKS
ST. JOSEPH     CLOUDY    46  45  96 S8        29.77F
6HR MIN TEMP:  41; 6HR MAX TEMP:  46;

MOSBY          CLOUDY    45  45 100 E3        29.77F FOG
WARRENSBURG    CLOUDY    46  45  93 SE6       29.77F
WHITEMAN AFB   CLOUDY    48  48 100 S5        29.76F FOG
CLINTON        CLOUDY    48  48 100 SE6       29.78F FOG
SEDALIA        CLOUDY    49  46  90 SE7       29.79F
6HR MIN TEMP:  45; 6HR MAX TEMP:  49;

WARSAW         NOT AVBL
CHILLICOTHE      N/A     45  44  97 SE6       29.79F
6HR MIN TEMP:  40; 6HR MAX TEMP:  45;

KIRKSVILLE     FOG       41  41 100 SE3       29.80F VSB 1/4
6HR MIN TEMP:  36; 6HR MAX TEMP:  41;


$$

MOZ041-047>049-056>058-063>065-088>090-097-191900-
...EASTERN AND SOUTHERN MISSOURI...

CITY           SKY/WX    TMP DP  RH WIND       PRES   REMARKS
ST. LOUIS INTL LGT RAIN  46  43  89 E7        29.84F FOG
6HR MIN TEMP:  43; 6HR MAX TEMP:  47; 6HR PCP:  0.06;

SPIRIT OF STL  CLOUDY    46  45  96 CALM      29.83F
COLUMBIA       CLOUDY    46  45  96 SE7       29.80F
JEFFERSON CITY CLOUDY    46  44  93 SE8       29.80F
ROLLA          CLOUDY    47  47 100 S8        29.78F
OSAGE BEACH    CLOUDY    47  45  93 SE6       29.80F
SPRINGFIELD    CLOUDY    49  47  93 S7        29.77F
BRANSON        CLOUDY    46  46 100 SE5       29.79F FOG
JOPLIN         CLOUDY    50  48  93 S9        29.76F
WEST PLAINS    FOG       48  47  96 SE3       29.81F VSB 1/4

$$

IAZ060-094-KSZ022-034>040-054-083-096-NEZ052-066-093-191900-
...KANSAS...SOUTHEAST NEBRASKA AND IOWA...

CITY           SKY/WX    TMP DP  RH WIND       PRES   REMARKS
TOPEKA         CLOUDY    47  44  90 SE6       29.75F FOG
6HR MIN TEMP:  44; 6HR MAX TEMP:  47;

MANHATTAN      CLOUDY    46  43  89 SE9       29.72F
EMPORIA        CLOUDY    45  44  97 S12       29.72F FOG
CHANUTE        CLOUDY    47  45  93 S9        29.75F
WICHITA        CLOUDY    48  45  89 SE13      29.67F
OMAHA          CLOUDY    41  38  89 SE10      29.76F FOG     WCI  35
LINCOLN        CLOUDY    42  41  96 SE8       29.73F FOG
FALLS CITY     CLOUDY    44  43  96 SE6       29.74F FOG
LAMONI         FOG       41  41 100 SE5       29.77F VSB<1/4
DES MOINES     DRIZZLE   39  37  92 E5        29.79F FOG

$$





USA.gov is the U.S. government's official web portal to all federal, state and local government web resources and services.